Regional Weather Roundup
Issued by NWS

Home | Current Version | Previous Version | Graphics & Text | Print | Product List | Glossary On
Versions: 1 2 3 4 5 6 7 8 9 10 11 12 13 14 15 16 17 18 19 20 21 22 23 24 25 26 27 28 29 30 31 32 33 34 35 36 37 38 39 40 41 42 43 44 45 46 47 48 49 50
000
ASUS43 KFSD 231210
RWRSD

WEATHER ROUNDUP FOR SOUTH DAKOTA
NATIONAL WEATHER SERVICE SIOUX FALLS SD
600 AM CST SUN NOV 23 2014

NOTE: "FAIR" INDICATES FEW OR NO CLOUDS BELOW 12,000 FEET WITH NO
SIGNIFICANT WEATHER AND/OR OBSTRUCTIONS TO VISIBILITY.


SDZ001>005-009-010-012>017-231300-
NORTHWEST AND NORTH CENTRAL SOUTH DAKOTA

CITY           SKY/WX    TMP DP  RH WIND       PRES   REMARKS
BUFFALO          N/A     36  25  64 W30G39    29.51R
FAITH            N/A     34  28  79 W18G24    29.56R WCI  23
MOBRIDGE       CLOUDY    38  32  79 W14       29.49R
$$

SDZ012>016-024>037-041>051-057-063-072>074-231300-
SOUTHWEST AND SOUTH CENTRAL SOUTH DAKOTA

CITY           SKY/WX    TMP DP  RH WIND       PRES   REMARKS
RAPID CTY ARPT CLEAR     34  19  54 NW15G23   29.63R WCI  24
PIERRE         CLOUDY    39  31  72 NW18      29.54R
CUSTER         CLEAR     29  12  49 NW10G20   29.60S WCI  20
ELLSWORTH AFB  CLEAR     36  19  51 NW21      29.62R
PHILIP         MOCLDY    41  28  60 NW12G22   29.60R
PINE RIDGE     CLOUDY    32  27  81 NW7       29.65R WCI  26
SPEARFISH      FAIR      36  16  44 W21G29    29.65R
WINNER         CLOUDY    41  35  79 NW12      29.55R
$$

SDZ004>011-016>023-039-040-231300-
NORTHEAST SOUTH DAKOTA

CITY           SKY/WX    TMP DP  RH WIND       PRES   REMARKS
ABERDEEN       CLOUDY    39  34  82 W17       29.46R
WATERTOWN      CLOUDY    38  33  82 NW12      29.44R
SISSETON         N/A     41  35  79 NW10      29.41R
$$

SDZ017-020-022-023-036>040-048>070-231300-
SOUTHEAST SOUTH DAKOTA

CITY           SKY/WX    TMP DP  RH WIND       PRES   REMARKS
SIOUX FALLS    CLOUDY    41  40  96 W8        29.46R
HURON          MOCLDY    38  34  85 NW9       29.48R
CHAMBERLAIN    CLOUDY    40  36  86 NW7       29.53R
MITCHELL       CLOUDY    39  35  86 NW13      29.51R
YANKTON        CLOUDY    39  36  87 W10       29.46R
$$

ABBREVIATIONS USED IN REMARKS
   TC - TEMPERATURE IN CELSIUS
  WCI - WIND CHILL INDEX
   HX - HEAT INDEX
  VSB - VISIBILITY



USA.gov is the U.S. government's official web portal to all federal, state and local government web resources and services.